Showing default

FLOCK 4Q 6, 58315

Orbit data source: Space-Track

FLOCK 4Q 6, 58315 is a payload satellite owned by Planet (US) in SSO that was launched on Sat, 11 Nov 2023 UTC via an FALCON 9 launch vehicle from the Air Force Western Test Range (AFWTR). Payload-class satellites include a variety of spacecraft equipped with specific instruments for various scientific and technological missions. These include communications satellites like Starlink; space stations such as the ISS; scientific satellites like the Hubble; Earth observation satellites from companies like Planet Labs, Umbra, and HawkEye 360; GPS; miniature CubeSats for education and research; and military/defense satellites.

Loading next visibility...
Identifier
58315, 2023-174BM
Orbit
SSO
Last TLE update
9 hours ago
Origin
Manufacturer
Planet
Mission
Operational Commercial Imaging
Bus & Motor
CUBESAT 3U, Unknown motor
Mass
5.7 kg wet, 5.7 kg dry
Launch date (UTC)
2023-11-11 (2 years ago)
Launch vehicle
FALCON 9
Launch site
Air Force Western Test Range (AFWTR)
Object type
Payload
Rocket body
Debris
Shape & HBR
Box + 2 Pan, 0.3 m
Radar Cross Section
0.035 m², Medium (>0.1 m² and < 1m²)

Expand to show TLE details & history

TLE from 9 hours ago
0 FLOCK 4Q 6
1 58315U 23174BM  25169.89564437  .00086435  00000-0  17053-2 0  9992
2 58315  97.4086 249.6811 0003502  41.2280 318.9233 15.46862481 89726
Epoch: 2025-06-18T21:29Z
TLE epoch observation values (Epoch: 2025-06-18T21:29:43.673Z)
Latitude
-0.00009°
Longitude
19.87802°
Altitude
427.241 km
Speed
7.656 km/s
True Right ascension
16h 38m 43s
True Declination
0° 00' 00"
Sunlit
Object was in full shadow at epoch
Visualization orbit readout
Latitude
-12.45048°
Longitude
-161.39179°
Altitude
433.42 km
Speed
7.65 km/s
Apparent Right ascension
04h 42m 58s
Apparent Declination
-25° 36' 33"
Sunlit
Object is in daylight
Visualization observer readout
Local Sidereal Time
16:55:38
Azimuth
11.435° NNE
Elevation
-75.45°
Doppler factor
1
Orbital elements
Apogee altitude
425.223 km
Perigee altitude
420.46 km
Semi-major axis
6,800.978 km
Eccentricity
0.00035
Inclination
97.4086°
RAAN
249.6811°
Arg. of periapsis
41.228°
True anomaly
Unknown
Mean anomaly
318.9233°
Eccentric anomaly
Unknown
Mean motion
3.86978 °/min
Orbital period
93.03 mins
BSTAR
0.0017053
Loading maneuver chart data...
Loading SW <> Apogee altitude chart data...
Loading historical data...
Loading historical data...
Loading historical data...
Loading historical data...
Loading historical data...
Loading historical data...
Loading historical data...

FLOCK 4Q 6 Visibility forecast

Observer location: undefined°, undefined°

Span
Click to sort rows by Start time (UTC) header in descending order
Start Az.
Max El. time (UTC)
Max El. Az.
Max El.
End time (UTC)
End Az.
5 mins2025-06-19 18:14:12.610Z10.185° NNE2025-06-19 18:17:12.610Z203.905° SW41.317°2025-06-19 18:19:12.610Z195.303° SSW
|